sat.trackr.live / text

‹ back to catalog

2024-205N

NORAD 61906 · 2024-205N

PAYLOAD ACTIVE UNKNOWN

§ Identity

Operator
Country
PRC
Launch date
2024-11-11
Launch site
JSC
Launch vehicle
Mass (kg)
RCS (m²)

External: N2YO · Heavens-Above · Gunter

§ Orbital elements

Epoch: 2026-09-22T23:07:14.990880Z

Period
93.40 min
Inclination
97.4101°
Eccentricity
0.0008177
Mean motion
15.41680044 rev/d
Perigee alt
435.6 km
Apogee alt
446.7 km
Semi-major
6,819.3 km
B*
4.3563e-4
RAAN
347.9457°
Arg perigee
50.9684°
Mean anomaly
309.2290°
Rev number
10,392

§ Raw data

2024-205N1 61906U 24205N   26265.96336795  .00018326  00000+0  43563-3 0  99972 61906  97.4101 347.9457 0008177  50.9684 309.2290 15.41680044103923

JSON: /api/v1/satellites/61906 · /tle

For live sub-satellite position, see the globe view (requires WebGL).

§ Visibility from observer

Set your observer location to see the next 7 days of passes ≥ 10°. The values pass through the URL so the page stays shareable.

No JS? Fill the form by hand. The geolocation button needs JavaScript.